Home > Weather > Ceuta > Past weeks

Flag for Spain Past Weather in Ceuta, Ceuta, Spain — Yesterday and Last 2 Weeks

Now
63 °F

Clear.


Feels Like: 63 °F
Forecast: 65 / 73 °F
Wind: 10 mph from Southwest

Location: Gibraltar Airport

Current Time: May 30, 2016 at 7:00:14 AM

Latest Report: May 30, 2016 at 5:50 AM


Visibility: N/A

Pressure: 30.07 "Hg

Humidity: 73%

Dew Point: 54 °F

Location of CeutaLocation

Past Weather in Ceuta — Graph

°F

Ceuta Temperature Yesterday

Maximum temperature yesterday: 73 °F (at 4:50 PM)
Minimum temperature yesterday: 63 °F (at 3:50 AM)
Average temperature yesterday: 67 °F

High & Low Weather Summary for the Past Weeks

 TemperatureHumidityPressure
High81 °F (May 19, 3:50 PM)100% (May 20, 7:50 AM)30.18 "Hg (May 20, 7:50 AM)
Low61 °F (May 15, 4:50 AM)39% (May 27, 2:50 PM)29.83 "Hg (May 25, 5:50 PM)
Average68 °F72%30.04 "Hg
* Reported May 15 4:50 AM — May 30 4:50 AM, Ceuta, Weather by CustomWeather, © 2016

Note: Actual official high and low records may vary slightly from our data, if they occured in-between our weather recording intervals... More about our weather records

Advertising

Ceuta Weather History for the Previous 24 Hours

Scroll right to see more
 ConditionsComfort  
Time TempWeatherWind HumidityBarometerVisibility
4:50 AM
Mon, May 30
63 °FClear.14 mph73%30.07 "HgN/A
3:50 AM63 °FClear.15 mph77%30.07 "HgN/A
2:50 AM63 °FClear.15 mph77%30.09 "HgN/A
1:50 AM63 °FClear.16 mph77%30.09 "HgN/A
12:50 AM63 °FClear.17 mph73%30.12 "HgN/A
11:50 PM
Sun, May 29
63 °FClear.17 mph77%30.12 "HgN/A
9:50 PM66 °FPassing clouds.12 mph68%30.12 "HgN/A
8:50 PM70 °FPassing clouds.13 mph57%30.12 "HgN/A
7:50 PM72 °FPassing clouds.15 mph50%30.12 "HgN/A
6:50 PM70 °FPassing clouds.16 mph53%30.12 "HgN/A
5:50 PM72 °FPassing clouds.15 mph44%30.12 "HgN/A
4:50 PM73 °FPassing clouds.16 mph41%30.12 "HgN/A
3:50 PM72 °FScattered clouds.17 mph50%30.12 "HgN/A
2:50 PM70 °FScattered clouds.15 mph53%30.12 "HgN/A
1:50 PM70 °FScattered clouds.12 mph53%30.12 "HgN/A
12:50 PM70 °FScattered clouds.7 mph50%30.15 "HgN/A
11:50 AM68 °FPassing clouds.9 mph56%30.15 "HgN/A
10:50 AM66 °FPassing clouds.10 mph64%30.15 "HgN/A
9:50 AM64 °FPassing clouds.12 mph73%30.15 "HgN/A
8:50 AM63 °FPassing clouds.8 mph83%30.15 "HgN/A
7:50 AM63 °FPassing clouds.9 mph83%30.15 "HgN/A
Weather by CustomWeather, © 2016

See weather overviewHow to use our weather pages